Location: Huberhof
(49.2050°N, 7.4980°E)
Time: 04:08:09
(UTC+00:00)

USA 281 - Pass Details

Date: 29 October 2020
Orbit: 1079 x 1080 km, 106.0° (Epoch: 23 November)

Event Time Altitude Azimuth Distance (km) Brightness Sun altitude
Rises 16:44:51 0° 152° (SSE) 3,864 6.0 -5.8°
Reaches altitude 10° 16:47:20 10° 153° (SSE) 2,912 5.4 -6.2°
Maximum altitude 16:53:54 87° 242° (WSW) 1,087 3.3 -7.2°
Drops below altitude 10° 17:00:31 10° 334° (NNW) 2,929 5.7 -8.3°
Sets 17:03:02 0° 334° (NNW) 3,889 6.3 -8.7°
